Regional Weather Roundup
Issued by NWS

Home | Current Version | Previous Version | Text Only | Print | Product List | Glossary Off
Versions: 1 2 3 4 5 6 7 8 9 10 11 12 13 14 15 16 17 18 19 20 21 22 23 24 25 26 27 28 29 30 31 32 33 34 35 36 37 38 39 40 41 42 43 44 45 46 47 48 49 50

000
ASUS45 KBOU 022207
RWRCO

WEATHER ROUNDUP FOR COLORADO
NATIONAL WEATHER SERVICE DENVER/BOULDER CO
400 PM MDT TUE SEP 02 2014

NOTE: "FAIR" INDICATES FEW OR NO CLOUDS BELOW 12000 FEET WITH NO
SIGNIFICANT WEATHER AND/OR OBSTRUCTIONS TO VISIBILITY.

COZ001>005-013-030-031-022300-
...NORTHWEST COLORADO...

CITY           SKY/WX    TMP DP  RH WIND       PRES   REMARKS
CRAIG          SUNNY     83  37  19 W24G32    30.06F
HAYDEN         MOSUNNY   81  34  18 W15       30.09F
MEEKER         MOSUNNY   83  30  14 SW12      30.08F
MOUNT WERNER   NOT AVBL
STEAMBOAT SPGS MOSUNNY   76  40  26 SW7       30.12F
WALDEN         SUNNY     72  32  23 SW13      30.21F
$$

COZ006>008-011-022300-
...WEST CENTRAL VALLEYS...

CITY           SKY/WX    TMP DP  RH WIND       PRES   REMARKS
GRAND JUNCTION SUNNY     87  36  16 NW7       29.98F
MONTROSE       SUNNY     88  32  13 N5        30.05F
EAGLE          MOSUNNY   82  30  15 W16G26    30.13F
RIFLE          SUNNY     86  30  13 W17       30.03F
DELTA          SUNNY     93  32  11 S6        30.00F
NUCLA          SUNNY     88  32  13 W6        30.10F
$$

COZ017>023-064>068-022300-
...SOUTHWEST COLORADO...

CITY           SKY/WX    TMP DP  RH WIND       PRES   REMARKS
DURANGO        SUNNY     86  31  13 W14       30.13F
CORTEZ         SUNNY     87  33  14 VRB3      30.08F
PAGOSA SPRINGS MOSUNNY   83  19   9 SW13G21   30.21F
TELLURIDE      MOSUNNY   75  28  17 SW5       30.33F
WOLF CREEK PAS SUNNY     59  28  31 SW13G23   30.55F
$$

COZ009-010-012-014-032>034-037-058>063-022300-
...CENTRAL COLORADO...

CITY           SKY/WX    TMP DP  RH WIND       PRES   REMARKS
ASPEN          SUNNY     77  32  19 N10G29    30.19F
BUENA VISTA    SUNNY     81  23  12 W16G22    30.19F
COPPER MTN     PTSUNNY   61  23  23 W25       30.53F
BERTHOUD PASS  FAIR      52  50  93 W22       30.56S
COTTONWOOD PAS PTSUNNY   72  18  13 NW5       30.37S
GUNNISON       SUNNY     79  30  17 W8G21     30.21F
KREMMLING      PTSUNNY   79  25  13 W8        30.16F
LEADVILLE      MOSUNNY   67  27  22 NW12      30.35F
MONARCH PASS   SUNNY     61  27  27 W22G33    30.64S
SALIDA         SUNNY     84  24  11 W14       30.23F
SUNLIGHT       SUNNY     66  36  32 CALM      30.47F
WILKERSON PASS NOT AVBL
$$

COZ069>075-022300-
...SAN LUIS VALLEY/SANGRE DE CRISTO MOUNTAINS...

CITY           SKY/WX    TMP DP  RH WIND       PRES   REMARKS
ALAMOSA        MOSUNNY   82  27  13 S5        30.17F
LA VETA PASS   NOT AVBL
SAGUACHE       PTSUNNY   77  34  20 SW8       30.21F
$$

COZ035-036-038>040-022300-
...NORTHERN COLORADO FRONT RANGE...

CITY           SKY/WX    TMP DP  RH WIND       PRES   REMARKS
DENVER INTL AP MOSUNNY   87  36  16 NW6       29.99F
DMNS CITY PARK   N/A     87  34  15 NE1G9     29.98S
AURORA         MOSUNNY   87  36  16 NE6       30.02F
FRONT RANGE AP MOSUNNY   88  32  13 CALM      30.01F
ERIE MUNI ARPT SUNNY     87  36  16 E5        29.96F
BOULDER MUN AP SUNNY     82  46  28 SE3       29.97F
CENTENNIAL     MOSUNNY   87  28  12 E10       30.03F
BROOMFIELD     MOSUNNY   86  36  16 VRB6      30.01F
FORT COLLINS   SUNNY     84  52  32 SE7       29.95F
LONGMONT       SUNNY     88  45  22 E5        29.98F
$$

COZ041-046-047-076>085-087-088-022300-
...PIKES PEAK/PALMER DIVIDE AND SOUTHERN FOOTHILLS...

CITY           SKY/WX    TMP DP  RH WIND       PRES   REMARKS
COLO. SPRINGS  MOSUNNY   80  51  36 SE18G26   30.09F
A. F. ACADEMY  SUNNY     78  52  41 SE9       30.10F
ELLICOTT       NOT AVBL
FALCON         SUNNY     77  51  39 S9        30.15F
FORT CARSON    MOSUNNY   83  50  31 S16       30.05F
LIMON          SUNNY     81  50  33 S10       30.05F
MONUMENT HILL  SUNNY     75  50  41 S15       30.14F
TRINIDAD       MOSUNNY   91  42  18 E15       30.04F
$$

COZ042>045-048>051-090-091-022300-
...NORTHEAST COLORADO...

CITY           SKY/WX    TMP DP  RH WIND       PRES   REMARKS
GREELEY ARPT   SUNNY     84  46  26 E5        29.96F
AKRON          SUNNY     84  47  27 S12G18    29.98F
BURLINGTON     MOSUNNY   86  52  30 S21G29    30.00F
WRAY             N/A     88  52  29 S18G25    29.95F
STERLING       SUNNY     88  55  33 S13G18    29.92F
HOLYOKE        SUNNY     84  55  37 S15G21    29.95F
FORT MORGAN    SUNNY     86  50  28 SE9       29.96F
$$

COZ086-089-092>099-022300-
...SOUTHEAST COLORADO...

CITY           SKY/WX    TMP DP  RH WIND       PRES   REMARKS
PUEBLO         SUNNY     89  51  27 E18       29.95F
LA JUNTA       SUNNY     90  48  23 VRB3      29.95F
LAMAR          SUNNY     89  54  30 S16G24    29.95F
SPRINGFIELD      N/A     84  59  42 SE16      30.01F
$$


USA.gov is the U.S. government's official web portal to all federal, state and local government web resources and services.